Regional Weather Roundup
Issued by NWS

Home | Current Version | Previous Version | Text Only | Print | Product List | Glossary On
Versions: 1 2 3 4 5 6 7 8 9 10 11 12 13 14 15 16 17 18 19 20 21 22 23 24 25 26 27 28 29 30 31 32 33 34 35 36 37 38 39 40 41 42 43 44 45 46 47 48 49 50
263
ASUS43 KDMX 251706
RWRIA

WEATHER ROUNDUP FOR IOWA
NATIONAL WEATHER SERVICE DES MOINES IA
1200 PM CDT TUE JUL 25 2017

NOTE: "FAIR" INDICATES FEW OR NO CLOUDS BELOW 12,000 FEET WITH NO
SIGNIFICANT WEATHER AND/OR OBSTRUCTIONS TO VISIBILITY.

* - THESE STATIONS ARE NOT NWS STATIONS...THUS NOT UNDER NWS
QUALITY CONTROL.  THEY ALSO DO NOT REPORT WEATHER SUCH
AS PRECIPITATION OR FOG.

IAZ001>003-012>014-020>022-031>034-043>046-251800-
   NORTHWEST IOWA

CITY           SKY/WX    TMP DP  RH WIND       PRES   REMARKS
CARROLL *      SUNNY     84  73  70 S20G25    30.02S HX  91
CHEROKEE *     SUNNY     85  72  64 S17       29.98S HX  91
DENISON *      SUNNY     84  72  65 S12G23    30.03S HX  89
ORANGE CITY *  SUNNY     84  73  70 S14       29.97R HX  91
SHELDON *      SUNNY     84  72  65 S14G21    29.95S HX  89
SIOUX CITY     SUNNY     89  74  60 S12G20    29.95F HX  98
SPENCER        SUNNY     86  70  58 S16       29.99R HX  90
STORM LAKE *   SUNNY     82  72  69 S15G22    30.01R HX  87
$$

IAZ055>058-069>071-079>083-090>094-251800-
   SOUTHWEST IOWA

CITY           SKY/WX    TMP DP  RH WIND       PRES   REMARKS
ATLANTIC *     SUNNY     84  72  65 S10G18    30.04S HX  89
AUDUBON *      SUNNY     84  73  70 S12G18    30.05S HX  91
CLARINDA *     SUNNY     84  73  70 S13       30.07S HX  91
COUNCIL BLFS * SUNNY     86  73  66 S13       30.02S HX  93
CRESTON *      SUNNY     84  72  65 S13G21    30.09S HX  89
HARLAN  *      SUNNY     84  73  70 S15       30.06S HX  91
LAMONI         SUNNY     83  70  64 S8        30.10S HX  87
RED OAK *      SUNNY     84  73  70 S10       30.04S HX  91
SHENANDOAH *   SUNNY     86  75  70 S10G17    30.04S HX  95
$$

IAZ047>049-059>061-072>074-084-251800-
   CENTRAL IOWA

CITY           SKY/WX    TMP DP  RH WIND       PRES   REMARKS
AMES           SUNNY     83  70  64 S14       30.08R HX  87
ANKENY *       SUNNY     82  70  65 S10G18    30.08S HX  86
BOONE *        SUNNY     82  70  65 S10G20    30.07R HX  86
CHARITON *     SUNNY     84  66  54 S12G17    30.10S HX  86
DES MOINES     MOSUNNY   86  66  51 S14       30.07S HX  88
GRINNELL*      SUNNY     80  67  64 S12       30.12S HX  82
KNOXVILLE *    SUNNY     82  66  57 S14       30.09R HX  85
MARSHALLTOWN   CLOUDY    81  68  64 S14       30.09S HX  84
NEWTON *       SUNNY     81  68  65 S12G17    30.11R HX  83
PELLA *        SUNNY     84  65  53 S9        30.11S HX  86
$$

IAZ004>006-015-016-023>025-035-036-251800-
   NORTH CENTRAL IOWA

CITY           SKY/WX    TMP DP  RH WIND       PRES   REMARKS
ALGONA *       SUNNY     82  70  65 S15G25    30.03R HX  86
CLARION *      SUNNY     81  72  74 S15G25    30.05F HX  84
ESTHERVILLE    SUNNY     81  70  69 S17G28    29.99S HX  84
FORT DODGE *   SUNNY     82  68  61 S17       30.05S HX  85
MASON CITY     SUNNY     79  67  66 SE18      30.08F HX  81
FOREST CITY *    N/A     81  68  65 S20G25    30.05F HX  83
WEBSTER CITY * SUNNY     82  70  65 S14G23    30.03F HX  86
IOWA FALLS *     N/A     81  69  65 SE12G21   30.09F HX  84
$$

IAZ007>011-017>019-026>030-037>042-050>054-066-251800-
   NORTHEAST IOWA

CITY           SKY/WX    TMP DP  RH WIND       PRES   REMARKS
CEDAR RAPIDS   PTSUNNY   77  70  79 SE10      30.13S
CHARLES CITY * CLOUDY    73  68  83 SE14      30.14R
DECORAH *      PTSUNNY   64  63  94 SE6G12    30.16F FOG
DUBUQUE        CLOUDY    73  63  70 SE6       30.18S
MONTICELLO *   PTSUNNY   77  66  69 SE8       30.16R
OELWEIN *      CLOUDY    72  68  88 SE12      30.16R
WATERLOO       CLOUDY    77  67  71 S14       30.11R
$$

IAZ064-065-067-068-078-251800-
   EAST CENTRAL IOWA

CITY           SKY/WX    TMP DP  RH WIND       PRES   REMARKS
DAVENPORT      MOSUNNY   77  66  68 SE7       30.18F
IOWA CITY      SUNNY     80  69  69 SE12      30.15S HX  83
MT. PLEASANT * SUNNY     82  65  57 SE7       30.13F HX  83
MUSCATINE *    MOSUNNY   79  66  65 SE8       30.15S HX  81
QUAD CITIES    MOSUNNY   79  67  66 S6        30.16S HX  81
$$

IAZ062-063-075>077-085>089-095>099-251800-
   SOUTHEAST IOWA

CITY           SKY/WX    TMP DP  RH WIND       PRES   REMARKS
BURLINGTON     SUNNY     79  69  71 VRB6      30.14S HX  81
FAIRFIELD *    SUNNY     82  63  51 S8G15     30.11F HX  83
FORT MADISON * SUNNY     81  72  74 SE3       30.15S HX  84
KEOKUK *       MOSUNNY   81  68  65 E8        30.13S HX  83
OSKALOOSA *      N/A     83  67  57 SE10      30.11S HX  85
CENTERVILLE *    N/A     82  66  57 S7        30.13R HX  85
OTTUMWA        SUNNY     84  65  52 SE13      30.10F HX  86
WASHINGTON *   SUNNY     81  70  69 SE9       30.14F HX  84
$$

ABBREVIATIONS USED IN REMARKS
   TC - TEMPERATURES IN CELSIUS
  WCI - WIND CHILL INDEX
   HX - HEAT INDEX
  VSB - VISIBILITY
$$





USA.gov is the U.S. government's official web portal to all federal, state and local government web resources and services.